OE5XCL Weather Reports


time (UTC)temp
F
wind
direction
speed
knots
gust
knots
rain 1hr
in
rain 24hr
in
rain mn
in
humidity
%
barometer
mb
20260506061506 0 234 0.0 2.6 0.00 0.10 0.00 1007.1
20260506044543 0 243 0.0 0.0 0.00 0.10 0.00 1007.1
20260506043031 0 243 0.0 0.0 0.00 0.10 0.00 1007.2
20260506041527 0 243 0.0 0.0 0.00 0.10 0.00 1007.2
20260506040047 0 243 0.9 2.6 0.00 0.10 0.00 1007.2
20260506034518 0 243 0.0 0.0 0.00 0.10 0.00 1007.0
20260506033014 0 243 0.0 0.9 0.00 0.10 0.00 1007.5
20260506031524 0 243 0.0 0.0 0.00 0.10 0.00 1007.3
20260506030006 0 243 0.0 0.0 0.00 0.10 0.00 1007.2
20260506024503 0 243 0.0 0.0 0.00 0.10 0.00 1007.3
20260506023059 0 243 0.0 0.0 0.00 0.10 0.00 1007.5
20260506021557 0 243 1.7 2.6 0.00 0.10 0.00 1007.4
20260506020048 0 243 0.0 0.9 0.00 0.10 0.00 1007.3
20260506014544 0 243 0.0 0.9 0.00 0.10 0.00 1007.3
20260506013039 0 243 0.0 2.6 0.00 0.10 0.00 1007.4
20260506011537 0 243 0.0 2.6 0.00 0.10 0.00 1007.5
20260506010031 0 243 0.0 3.5 0.00 0.10 0.00 1007.6
20260506004527 0 269 0.0 7.0 0.00 0.10 0.00 1007.7
20260506003022 0 260 0.9 6.1 0.00 0.10 0.00 1007.7
20260506001517 0 268 2.6 9.6 0.00 0.10 0.00 1007.6
20260506000012 0 261 2.6 8.7 0.00 0.10 0.00 1007.5
20260505234508 0 267 3.5 9.6 0.00 0.10 0.00 1007.5
20260505233004 0 292 4.3 10.4 0.00 0.10 0.00 1007.4
20260505231606 0 271 2.6 7.8 0.00 0.10 0.00 1007.4
20260505230055 0 279 0.9 8.7 0.00 0.10 0.00 1007.2
20260505224551 0 271 2.6 7.8 0.00 0.10 0.00 1007.1
20260505223052 0 283 1.7 6.1 0.00 0.10 0.00 1006.9
20260505221541 0 283 0.0 1.7 0.00 0.10 0.00 1006.5
20260505220041 0 283 1.7 4.3 0.00 0.10 0.00 1006.5
20260505214539 0 283 0.0 6.1 0.00 0.10 0.10 1006.3
20260505213028 0 293 0.9 6.1 0.00 0.10 0.10 1006.3
20260505211524 0 295 0.0 1.7 0.00 0.10 0.10 1006.0
20260505210024 0 295 0.0 3.5 0.00 0.10 0.10 1005.8
20260505204515 0 295 0.0 0.9 0.00 0.10 0.10 1005.7
20260505203011 0 295 0.0 2.6 0.00 0.10 0.10 1005.6
20260505201507 0 295 0.0 2.6 0.00 0.10 0.10 1005.4
20260505200002 0 296 0.0 3.5 0.00 0.10 0.10 1005.1
20260505194612 0 296 1.7 4.3 0.04 0.10 0.10 1005.0
20260505193054 0 293 1.7 7.8 0.09 0.10 0.10 1005.0
20260505191549 0 289 0.0 0.9 0.10 0.10 0.10 1004.7
20260505190045 0 289 0.0 7.8 0.10 0.10 0.10 1004.3
20260505184540 0 325 5.2 13.9 0.06 0.06 0.06 1003.8
20260505183039 0 309 7.8 17.4 0.01 0.01 0.01 1003.9
20260505181531 0 284 10.4 20.0 0.00 0.00 0.00 1003.7
20260505180026 0 319 10.4 22.6 0.00 0.00 0.00 1003.4
20260505174522 0 285 12.2 27.8 0.00 0.00 0.00 1003.2
20260505173018 0 276 14.8 27.8 0.00 0.00 0.00 1002.7
20260505171518 0 86 0.0 0.0 0.00 0.00 0.00 1001.8
20260505170015 0 86 0.0 1.7 0.00 0.00 0.00 1001.7
20260505164505 0 86 0.0 1.7 0.00 0.00 0.00 1001.7
20260505163107 0 86 0.0 1.7 0.00 0.00 0.00 1001.8
20260505161614 0 86 0.0 1.7 0.00 0.00 0.00 1002.0
20260505153043 0 86 0.0 2.6 0.00 0.00 0.00 1002.2
20260505151540 0 86 0.0 2.6 0.00 0.00 0.00 1002.3
20260505130112 0 92 0.9 6.1 0.00 0.00 0.00 1003.7
20260505124600 0 83 1.7 4.3 0.00 0.00 0.00 1003.9
20260505123050 0 11 0.0 6.1 0.00 0.00 0.00 1004.2
20260505121547 0 360 1.7 7.8 0.00 0.00 0.00 1004.4
20260505120040 0 321 4.3 8.7 0.00 0.00 0.00 1004.6
20260505114536 0 309 5.2 8.7 0.00 0.00 0.00 1004.8
20260505113032 0 321 2.6 7.0 0.00 0.00 0.00 1004.8
20260505111534 0 330 1.7 10.4 0.00 0.00 0.00 1005.1
20260505101509 0 297 0.0 6.1 0.00 0.00 0.00 1005.9
20260505100009 0 322 2.6 7.8 0.00 0.00 0.00 1006.1
20260505094601 0 314 0.9 4.3 0.00 0.00 0.00 1006.2
20260505093107 0 302 2.6 7.8 0.00 0.00 0.00 1006.3
20260505091553 0 282 2.6 6.1 0.00 0.00 0.00 1006.5
20260505090047 0 331 0.9 5.2 0.00 0.00 0.00 1006.5
20260505084543 0 57 0.9 3.5 0.00 0.00 0.00 1006.7
20260505083039 0 57 0.0 2.6 0.00 0.00 0.00 1006.7
20260505081543 0 57 0.9 4.3 0.00 0.00 0.00 1006.8
20260505080033 0 340 0.0 1.7 0.00 0.00 0.00 1007.0
20260505074526 0 318 0.0 3.5 0.00 0.00 0.00 1007.1
20260505073025 0 313 0.9 4.3 0.00 0.00 0.00 1007.2
20260505071534 0 311 0.0 2.6 0.00 0.00 0.00 1007.2